Location: Buckland
(65.9785°N, 161.1281°W)
Time: 13:47:21
(UTC+00:00)

SPROUT - Pass Details

Date: 21 January 2021
Orbit: 597 x 609 km, 97.9° (Epoch: 05 March)

Event Time Altitude Azimuth Distance (km) Brightness Sun altitude
Exits shadow 04:28:18 - 17° (NNE) 2,185 ? -15.3°
Reaches altitude 10° 04:29:28 10° 3° (N) 1,978 ? -15.4°
Maximum altitude 04:30:50 11° 345° (NNW) 1,888 ? -15.6°
Drops below altitude 10° 04:32:11 10° 326° (NW) 1,979 ? -15.7°
Sets 04:35:51 0° 293° (WNW) 2,885 ? -16.1°
